CZ-6A DEB

Satellite information

Favourite Embed

Satellite Type and Status

DEBRISIN ORBIT

Key statistics

Satellite CZ-6A DEB at a glance.

Uptime

970

Days in orbit

Revolutions

≈ 14.6

Per day

Orbit

SSO

Sun Synchronous Orbit

Inclination

98.7

Latest

Satellite identification and parameters

Extended collection of information and parameters for CZ-6A DEB.

Object identification

Identified? True

Debris? True

Object name: CZ-6A DEB

International designator: 2022-151AAF

Object number (NORAD): 55883

Object ID (CCSDS): 55883

Country: PEOPLES REPUBLIC OF CHINA (PRC)

Current information (Y/N): Y

RCS size: SMALL

Orbital parameters

Period: 98.456 minutes

Inclination: 98.705 deg

SMA: 7062.975 km

Apoapsis: 774.359 km

Periapsis: 595.32 km

RAAN: 252.7671 deg

Eccentricy: 0.0126745

Argument of periapsis: 231.299 deg

Mean anomaly: 127.6821 deg

Mean motion: 14.62585638 rev/day

Mean motion (dot): 0.00003173 rev/day2

B* drag term: 0.00056716 1/REarth

Two-line elements (TLE)

Creation date: July 6, 2025, 6:05 p.m.

Reference frame: TEME

Reference center: EARTH

Epoch: July 5, 2025, 11:35 p.m. UTC

TLE line 0: 0 CZ-6A DEB

TLE line 1: 1 55883U 22151AAF 25186.98274957 .00003173 00000-0 56716-3 0 9995

TLE line 2: 2 55883 98.7050 252.7671 0126745 231.2990 127.6821 14.62585638127938

Live tracking on map

Real-time ground track for satellite CZ-6A DEB.

In-orbit conjunctions

A list of the most updated potential collisions computed for object CZ-6A DEB.

Target Orbit TCA Probability of collision Miss distance Type
COSMOS 1275 DEB LEO 2025-06-23 16:29:15 0.0002927946 44.0 (m) DEBRIS
SL-8 R/B LEO 2024-12-17 05:52:00 0.0001488184 769.0 (m) ROCKET BODY

Associated space launch

Chinese satellite reported for atmospheric/ocean/environmental/spatial parameter research purposes, details TBD.

CZ-6A DEB was lifted into orbit during the mission ‘Long March 6A | Yunhai 3’, on board a Long March 6A space rocket.

The launch took place on Nov. 11, 2022, 10:52 p.m. from Launch Complex 9A.

For more information about the launch, click the button.

Launch to space Long March 6A | Yunhai 3
Long March 6A | Yunhai 3

Agency: N/A

Status: Launch Successful

Launch date: Nov. 11, 2022, 10:52 p.m. UTC

Rocket: Long March 6A

Launch pad: Launch Complex 9A

Location: Taiyuan Satellite Launch Center, People's Republic of China

...

Latest news about this satellite

There are no fresh news available about this satellite. Check back as we update our databases every day.


Newsletter sign-up

Weekly statistics, charts and insights to help you stay on top of the space industry.